STARLINK-36491, 67310

Orbit data source: Space-Track

STARLINK-36491, 67310 is a payload satellite owned by SpaceX/Seattle (US) in LEO that was launched on Sun, 04 Jan 2026 UTC via an FALCON 9 launch vehicle from the Air Force Eastern Test Range (AFETR). Payload-class satellites include a variety of spacecraft equipped with specific instruments for various scientific and technological missions. These include communications satellites like Starlink; space stations such as the ISS; scientific satellites like the Hubble; Earth observation satellites from companies like Planet Labs, Umbra, and HawkEye 360; GPS; miniature CubeSats for education and research; and military/defense satellites.

Loading next visibility...
Identifier
67310, 2026-002F
Orbit
LEO
Country
Flag of USUS
Related business
Manufacturer
SpaceX/Seattle
Mission
Operational Commercial Communications
Bus & Motor
STARLINK V2MO, Unknown motor
Mass
575 kg wet, ~530 kg dry
Launch date (UTC)
2026-01-04 (2 months ago)
Launch vehicle
FALCON 9
Launch site
Air Force Eastern Test Range (AFETR)
Object type
Payload
Rocket body
Debris
Shape & HBR
Box + 2 Pan, 17.7 m
Radar Cross Section
36.964 m²

Expand to show TLE details & history
Last TLE update: 1 day ago

TLE from 1 day ago
0 STARLINK-36491
1 67310U 26002F   26062.19967622  .00037617  00000-0  13697-2 0  9997
2 67310  43.0023   2.1541 0002324 272.8453  87.2132 15.27574772 10085
Epoch: 2026-03-03T04:47Z
TLE epoch observation values (Epoch: 2026-03-03T04:47:32.025Z)
Latitude
-0.00006°
Longitude
129.28844°
Altitude
482.763 km
Speed
7.626 km/s
True Right ascension
00h 08m 36s
True Declination
0° 00' 00"
Sunlit
Object was in daylight at epoch
Visualization orbit readout
Latitude
Unknown
Longitude
Unknown
Altitude
Unknown
Speed
Unknown
Apparent Right ascension
Unknown
Apparent Declination
Unknown
Sunlit
N/A
Visualization observer readout
Local Sidereal Time
09:12:02
Azimuth
Unknown
Elevation
Unknown
Doppler factor
Unknown
Orbital elements
Apogee altitude
486.605 km
Perigee altitude
483.415 km
Semi-major axis
6,863.147 km
Eccentricity
0.00023
Inclination
43.0023°
RAAN
2.1541°
Arg. of periapsis
272.8453°
True anomaly
87.2398°
Mean anomaly
87.2132°
Eccentric anomaly
87.2265°
Mean motion
3.81732 °/min
Orbital period
94.31 mins
BSTAR
0.0013697
Loading maneuver chart data...
Computing Atmospheric mass density...
Loading historical data...
Loading historical data...
Loading historical data...
Loading historical data...
Loading historical data...
Loading historical data...
Loading historical data...

Documentation

Showing up to 5 results
|